Flag for United Kingdom Weather past 2 weeks in Manchester, England, United Kingdom

54 °F

Partly sunny.

Feels Like: 50 °F
Forecast: 46 / 58 °F
Wind: 10 mph from Northwest

Location: Manchester Airport

Current Time: Oct 7, 2015 at 7:00:13 PM

Latest Report: Oct 7, 2015 at 6:20 PM

Visibility: N/A

Pressure: 29.92 "Hg

Humidity: 72%

Dew point: 45 °F

Location of ManchesterLocation

Historic Weather in Manchester — Graph


Manchester temperature yesterday

Maximum temperature yesterday: 66 °F (at 12:20 PM)
Minimum temperature yesterday: 54 °F (at 11:50 PM)
Average temperature yesterday: 61 °F

Past Weeks' High & Low Weather Summary

High66 °F (Oct 5, 1:50 PM)100% (Sep 23, 5:50 AM)30.66 "Hg (Sep 23, 5:50 AM)
Low37 °F (Oct 2, 5:50 AM)49% (Oct 1, 3:50 PM)29.39 "Hg (Oct 6, 7:20 AM)
Average53 °F83%30.13 "Hg
* Reported Sep 22 5:50 PM — Oct 7 5:20 PM, Manchester, Weather by CustomWeather, © 2015

Note: Actual official high and low records may vary slightly from our data, if they occured in-between our weather recording intervals... More about our weather records


Manchester weather history for previous 24 hours

Time TempWeatherWind HumidityBarometerVisibility
5:20 PM
Wed, Oct 7
54 °FPartly sunny.12 mph77%29.89 "HgN/A
4:50 PM52 °FScattered showers. Broken clouds.13 mph82%29.89 "HgN/A
4:20 PM54 °FSprinkles. Partly sunny.12 mph77%29.86 "HgN/A
3:50 PM55 °FPartly sunny.15 mph67%29.86 "HgN/A
3:20 PM55 °FPartly sunny.15 mph72%29.83 "HgN/A
2:50 PM55 °FPartly sunny.12 mph77%29.83 "HgN/A
2:20 PM55 °FPartly sunny.13 mph72%29.83 "HgN/A
1:50 PM55 °FBroken clouds.13 mph72%29.83 "HgN/A
1:20 PM55 °FScattered clouds.16 mph72%29.80 "HgN/A
12:50 PM55 °FSprinkles. Scattered clouds.13 mph77%29.80 "HgN/A
12:20 PM54 °FScattered clouds.18 mph82%29.80 "HgN/A
11:50 AM54 °FBroken clouds.15 mph88%29.77 "HgN/A
11:20 AM52 °FPartly sunny.15 mph94%29.77 "HgN/A
10:50 AM52 °FDrizzle. Broken clouds.17 mph100%29.74 "Hg2 mi
10:20 AM54 °FLight rain. Partly sunny.15 mph94%29.74 "HgN/A
9:50 AM54 °FLight rain. Partly sunny.15 mph94%29.71 "Hg5 mi
9:20 AM54 °FLight rain. Partly sunny.13 mph100%29.71 "Hg5 mi
8:50 AM54 °FLight rain. Partly sunny.12 mph100%29.68 "Hg6 mi
8:20 AM55 °FLight rain. Partly sunny.12 mph94%29.68 "Hg4 mi
7:50 AM55 °FRain. Passing clouds.10 mph94%29.65 "Hg4 mi
7:20 AM55 °FLight rain. Passing clouds.10 mph94%29.62 "Hg4 mi
6:50 AM55 °FLight rain. Passing clouds.14 mph100%29.62 "Hg6 mi
6:20 AM57 °FRain. Passing clouds.9 mph94%29.59 "Hg4 mi
5:50 AM57 °FRain. Mostly cloudy.12 mph94%29.59 "Hg3 mi
5:20 AM57 °FLight rain. Mostly cloudy.10 mph100%29.59 "Hg4 mi
4:20 AM57 °FRain. Mostly cloudy.9 mph94%29.56 "Hg2 mi
3:50 AM57 °FRain. Mostly cloudy.8 mph100%29.56 "Hg2 mi
3:20 AM57 °FRain. Partly cloudy.8 mph100%29.56 "Hg2 mi
2:50 AM57 °FRain. Mostly cloudy.5 mph94%29.56 "Hg1 mi
2:20 AM57 °FLight rain. Fog.5 mph94%29.53 "Hg1 mi
1:50 AM55 °FFog.7 mph100%29.53 "Hg1 mi
1:20 AM55 °FFog.2 mph100%29.53 "Hg1 mi
12:50 AM55 °FFog.No wind94%29.53 "Hg1 mi
12:20 AM54 °FFog.No wind100%29.50 "Hg0 mi
11:50 PM
Tue, Oct 6
54 °FFog.No wind100%29.50 "Hg1 mi
11:20 PM55 °FPassing clouds.No wind100%29.50 "Hg0 mi
10:20 PM57 °FFog.3 mph94%29.47 "Hg2 mi
9:50 PM59 °FPassing clouds.5 mph94%29.47 "HgN/A
9:20 PM59 °FLight rain. Partly cloudy.6 mph94%29.47 "HgN/A
8:50 PM59 °FHeavy rain. Partly cloudy.6 mph94%29.45 "Hg3 mi
8:20 PM59 °FRain. Partly cloudy.3 mph100%29.45 "Hg4 mi
7:50 PM59 °FLight rain. Partly cloudy.5 mph100%29.45 "Hg6 mi
7:20 PM59 °FPartly sunny.5 mph100%29.42 "Hg6 mi
Weather by CustomWeather, © 2015

See weather overviewHow to use our weather pages